Regional Weather Roundup
Issued by NWS

Home | Current Version | Previous Version | Graphics & Text | Print | Product List | Glossary Off
Versions: 1 2 3 4 5 6 7 8 9 10 11 12 13 14 15 16 17 18 19 20 21 22 23 24 25 26 27 28 29 30 31 32 33 34 35 36 37 38 39 40 41 42 43 44 45 46 47 48 49 50

000
ASUS43 KTOP 292308
RWRKS

WEATHER ROUNDUP FOR KANSAS
NATIONAL WEATHER SERVICE GOODLAND KS
600 PM CDT WED MAR 29 2017

NOTE:  "FAIR" INDICATES FEW OR NO CLOUDS BELOW 12,000 FEET WITH NO
SIGNIFICANT WEATHER AND/OR OBSTRUCTIONS TO VISIBILITY.

KSZ001>006-013>018-027>032-041>047-300000-
NORTHWEST KANSAS

CITY           SKY/WX    TMP DP  RH WIND       PRES   REMARKS
GOODLAND       CLOUDY    44  39  82 N24       29.91S
HAYS             N/A     43  41  93 N32G40    29.76R
HILL CITY      RAIN      39  38  96 N23G30    29.86R FOG     WCI  28
RUSSELL        LGT RAIN  43  41  93 N22G33    29.73R FOG
$$

KSZ061>065-074>080-084>089-300000-
SOUTHWEST KANSAS

CITY           SKY/WX    TMP DP  RH WIND       PRES   REMARKS
DODGE CITY     LGT RAIN  41  39  93 N23G33    29.81R
ELKHART          N/A     43  33  68 N20         N/A
GARDEN CITY    LGT RAIN  42  40  92 N24G31    29.86S
GREAT BEND     LGT RAIN  43  40  89 N31G38    29.71R
LIBERAL        CLOUDY    45  39  81 N22G29    29.89R
PRATT          LGT RAIN  41  41  99 N26G32    29.69R
$$

KSZ066>073-081>083-090>101-300000-
SOUTHEAST KANSAS

CITY           SKY/WX    TMP DP  RH WIND       PRES   REMARKS
CHANUTE        LGT RAIN  64  52  64 S14G23    29.62F
COFFEYVILLE    MOSUNNY   65  54  67 SW14      29.63F
HUTCHINSON     LGT RAIN  46  44  93 N22G30    29.61S
MEDICINE LODGE   N/A     47  44  90 N22G32    29.66R
NEWTON         LGT RAIN  51  50  96 NW8       29.60R FOG
PARSONS        CLOUDY    64  54  69 S10       29.64F
WICHITA INTL   CLOUDY    55  49  80 S16       29.57F
WICHITA JABRA  CLOUDY    55  48  77 S15G28    29.58S
WICHITA MCCONL CLOUDY    55  48  76 SW16      29.58S
WINFIELD       PTSUNNY   56  47  71 S22G35    29.61F
$$

KSZ007>012-019>026-033>040-048>060-102>105-300000-
NORTHEAST KANSAS

CITY           SKY/WX    TMP DP  RH WIND       PRES   REMARKS
CONCORDIA      CLOUDY    43  41  93 NE17G30   29.71F
EMPORIA        MOSUNNY   64  54  69 S15       29.58F
LAWRENCE       PTSUNNY   59  58  96 NE8       29.64F
MANHATTAN      LGT RAIN  50  49  96 NE15G22   29.64S FOG
MARYSVILLE     DRIZZLE   43  43 100 N20G25    29.71F
OLATHE IND     CLOUDY    59  55  87 CALM      29.64S
OLATHE EXE     MOSUNNY   60  58  92 N6        29.64R
SALINA         HVY RAIN  46  44  93 N20G30    29.65F FOG
TOPEKA BILLARD CLOUDY    59  56  89 NE14      29.62F
TOPEKA FORBES  CLOUDY    62  57  83 E12       29.61F
$$




USA.gov is the U.S. government's official web portal to all federal, state and local government web resources and services.